COSMOS 2527 (756)

Last updated on Wed Nov 05 2025 00:03:19 GMT+0000 (Coordinated Universal Time)

1 43508U 18053A 25308.30853791 .00000018 00000+0 00000+0 0 9998 2 43508 65.4525 81.4157 0008060 217.3440 142.5845 2.13102075 57484
UTC large
Height (km)
Speed (km/s)
/
Latitude / Longitude
Inclination (degrees)
Orbital Period (minutes)
Azimuth
Elevation
Range (km)
Doppler Factor

Next 0 passes for location: London (51.5072 / 0.1276)

Sorry there are no passes over London.